{"data":{"norad_id":48157,"epoch":"2026-09-20T22:59:05.694720Z","epoch_age_seconds":48058,"freshness":"FRESH","line1":"1 48157U 21028A   26263.95770480 -.00000037  00000+0  87710-5 0  9995","line2":"2 48157  99.5285 278.1262 0046027 195.4667 164.5079 13.77605114272693","mean_motion":13.77605114,"eccentricity":0.0046027,"inclination_deg":99.5285,"raan_deg":278.1262,"arg_perigee_deg":195.4667,"mean_anomaly_deg":164.5079,"bstar":8.771e-6,"rev_number":27269,"period_min":104.52922868578,"perigee_km":938.56109771936,"apogee_km":1006.2256701155,"semimajor_km":7350.5303839174,"source":"CELESTRAK","updated_at":"2026-09-21T09:00:07.675149Z"}}